Ephrata, WA
on Friday, December 28, 2012

Friday
Previous Day Next Day
Daily Summary
 ActualAverageRecord
Temperature
Mean Temperature °F 26°F  
Max Temperature 32°F 32°F 55°F (2011)
Min Temperature 29°F 20°F -10°F (1968)
Degree Days
Heating Degree Days 34 39  
Month to date heating degree days 872 1052  
Since 1 July heating degree days 2132 2471  
Cooling Degree Days 0 0  
Month to date cooling degree days 0 0  
Year to date cooling degree days 837 772  
Moisture
Dew Point 26°F   
Average Humidity 85    
Maximum Humidity 92    
Minimum Humidity 78    
Precipitation
Precipitation 0.00 in 0.03 in 0.76 in (1992)
Month to date precipitation 1.62 1.13  
Year to date precipitation 8.57 7.74  
Wind
Wind Speed 5 mph   
Max Wind Speed 9 mph   
Max Gust Speed 10 mph   
Visibility 10 miles   
Events     

Key: T is trace of precipitation, MM is missing value
Source: NWS Daily Summary
Time(PST)TemperatureDew PointHumidity Pressure Visibility Wind DirectionWind SpeedGust SpeedPrecipitationEvents Conditions
12:18 AM 32.0°F 28.4°F 87% 30.16 in 8.0 miles SSW 3.5 mph - N/A   Overcast
12:53 AM 32.0°F 28.9°F 88% 30.20 in 9.0 miles Calm Calm - N/A   Overcast
1:53 AM 30.9°F 28.9°F 92% 30.20 in 9.0 miles Calm Calm - N/A   Overcast
2:53 AM 32.0°F 28.0°F 85% 30.21 in 9.0 miles Calm Calm - N/A   Overcast
3:53 AM 32.0°F 28.0°F 85% 30.21 in 10.0 miles Calm Calm - N/A   Overcast
4:53 AM 30.9°F 27.0°F 85% 30.21 in 10.0 miles NNW 4.6 mph - N/A   Overcast
5:42 AM 30.2°F 26.6°F 86% 30.17 in 10.0 miles NW 6.9 mph - N/A   Overcast
5:53 AM 30.0°F 27.0°F 88% 30.22 in 10.0 miles NNW 4.6 mph - N/A   Overcast
6:53 AM 30.0°F 26.1°F 85% 30.22 in 10.0 miles NNW 3.5 mph - N/A   Overcast
7:53 AM 30.0°F 27.0°F 88% 30.22 in 10.0 miles NNW 3.5 mph - N/A   Overcast
8:53 AM 30.0°F 27.0°F 88% 30.24 in 10.0 miles WNW 4.6 mph - N/A   Overcast
9:53 AM 30.9°F 27.0°F 85% 30.25 in 10.0 miles Calm Calm - N/A   Overcast
10:23 AM 30.2°F 26.6°F 86% 30.21 in 10.0 miles NW 3.5 mph - N/A   Overcast
10:53 AM 30.9°F 27.0°F 85% 30.25 in 10.0 miles NNW 3.5 mph - N/A   Overcast
11:53 AM 30.9°F 27.0°F 85% 30.23 in 10.0 miles NNW 6.9 mph - N/A   Overcast
12:53 PM 30.9°F 26.1°F 82% 30.23 in 10.0 miles NNW 5.8 mph - N/A   Overcast
1:53 PM 30.9°F 26.1°F 82% 30.23 in 10.0 miles NNW 9.2 mph - N/A   Overcast
2:36 PM 30.2°F 26.6°F 86% 30.19 in 10.0 miles NNW 6.9 mph - N/A   Overcast
2:53 PM 30.9°F 26.1°F 82% 30.23 in 10.0 miles NNW 6.9 mph - N/A   Overcast
3:53 PM 30.9°F 26.1°F 82% 30.24 in 10.0 miles NNW 6.9 mph - N/A   Overcast
4:38 PM 30.2°F 24.8°F 80% 30.20 in 10.0 miles NW 5.8 mph - N/A   Overcast
4:53 PM 30.9°F 25.0°F 79% 30.25 in 10.0 miles NNW 5.8 mph - N/A   Overcast
5:20 PM 30.2°F 24.8°F 80% 30.20 in 10.0 miles NW 6.9 mph - N/A   Overcast
5:53 PM 30.0°F 25.0°F 82% 30.25 in 10.0 miles NW 5.8 mph - N/A   Overcast
6:53 PM 30.0°F 25.0°F 82% 30.25 in 10.0 miles WNW 6.9 mph - N/A   Overcast
7:53 PM 28.9°F 25.0°F 85% 30.25 in 10.0 miles WNW 5.8 mph - N/A   Overcast
8:53 PM 30.0°F 25.0°F 82% 30.25 in 10.0 miles NW 6.9 mph - N/A   Overcast
9:53 PM 30.0°F 25.0°F 82% 30.26 in 10.0 miles WNW 5.8 mph - N/A   Overcast
10:53 PM 30.0°F 25.0°F 82% 30.26 in 10.0 miles NW 6.9 mph - N/A   Overcast
11:53 PM 30.0°F 26.1°F 85% 30.25 in 10.0 miles NW 5.8 mph - N/A   Overcast
Moon Phase
Dec. 28 Jan. 04 Jan. 11 Jan. 18 Jan. 26
Sunrise:07:44 AM (PST) Moon Rise:05:01 PM (PST)12/28
Sunset:04:15 PM (PST) Moon Set:07:38 AM (PST)12/28

Copyright © 2014 The Weather Underground, Inc.